Regional Weather Roundup
Issued by NWS Charleston, SC

Current Version | Previous Version | Text Only | Print | Product List | Glossary On
Versions: 1 2 3 4 5 6 7 8 9 10 11 12 13 14 15 16 17 18 19 20 21 22 23 24 25 26 27 28 29 30 31 32 33 34 35 36 37 38 39 40 41 42 43 44 45 46 47 48 49 50
000
ASUS42 KCHS 240828
RWRCHS

REGIONAL WEATHER ROUNDUP
NATIONAL WEATHER SERVICE CHARLESTON SC
400 AM EDT TUE MAY 24 2016

NOTE: "FAIR" INDICATES FEW OR NO CLOUDS BELOW 12,000 FEET WITH NO
SIGNIFICANT WEATHER AND/OR OBSTRUCTIONS TO VISIBILITY.

NOT ALL STATIONS ARE QUALITY CONTROLLED. USE DATA WITH CAUTION...
ESPECIALLY DEWPOINT OBSERVATIONS.

SCZ027-030-031-034>040-042>050-240900-
...SOUTHEAST SOUTH CAROLINA...

CITY           SKY/WX    TMP DP  RH WIND       PRES   REMARKS
N CHARLESTON   PTCLDY    59  54  83 CALM      30.06S
WATERFRONT PRK   N/A     67  59  75 VRB3      30.04F
MOUNT PLEASANT FAIR      55  55 100 CALM      30.06S
JOHNS ISLAND   FAIR      57  55  94 N5        30.06S
PINOPOLIS        N/A     63  55  77 VRB3      29.99R
MONCKS CORNER  FAIR      52  48  87 CALM      30.06F
SUMMERVILLE    FAIR      55  55 100 CALM      30.08S
BEAUFORT MCAS  CLEAR     65  58  78 NE6       30.06R
BEAUFORT ARPT  FAIR      66  57  72 NE6       30.05S
HILTON HEAD IS CLEAR     63  61  94 NE5       30.06R
WALTERBORO     PTSUNNY   61  59  94 CALM      30.08R
ALLENDALE      FAIR      61  55  82 CALM      30.06S

...SOUTHERN MIDLANDS AND PEE DEE...

CITY           SKY/WX    TMP DP  RH WIND       PRES   REMARKS
GEORGETOWN     FAIR      50  46  87 CALM      30.08S
KINGSTREE      FAIR      50  46  87 CALM      30.07S
ORANGEBURG     MOCLDY    59  56  89 CALM      30.07R
BARNWELL       PTSUNNY   63  61  94 CALM      30.07F
AIKEN          FAIR      59  52  77 CALM      30.10S
MANNING        FAIR      50  50 100 CALM      30.08R
COLUMBIA       MOCLDY    61  54  77 CALM      30.06S
SUMTER         PTCLDY    55  52  88 NE1       30.05S
FLORENCE       CLEAR     53  50  89 CALM      30.07R
MYRTLE BEACH   CLEAR     55  46  71 NW3       30.08S
N MYRTLE BEACH CLEAR     53  52  96 CALM      30.05S

$$

GAZ063-065-086>088-099>101-113>116-118-119-134>141-150-240900-
...SOUTHEAST GEORGIA...

CITY           SKY/WX    TMP DP  RH WIND       PRES   REMARKS
SAVANNAH ARPT  CLEAR     65  59  81 CALM      30.05S
HUNTER AAF     NOT AVBL
FORT STEWART   CLEAR     59  57  93 CALM      30.02S
STATESBORO     CLEAR     60  58  94 CALM      30.05S
SYLVANIA       SUNNY     63  57  80 E3        30.06F
CLAXTON        FAIR      57  57 100 CALM      30.05S

...CSRA...CENTRAL AND FAR SOUTHEAST GEORGIA...

CITY           SKY/WX    TMP DP  RH WIND       PRES   REMARKS
THOMSON        CLEAR     57  56  97 CALM      30.11S
AUGUSTA-BUSH   CLEAR     56  55  97 SW3       30.06R
AUGUSTA-DANIEL CLEAR     65  52  62 SE3       30.07R
SWAINSBORO     FAIR      61  55  82 E3        30.06S
VIDALIA        CLEAR     61  57  88 E5        30.05R
EASTMAN        FAIR      58  58 100 CALM      30.06S
HAZLEHURST     FAIR      65  57  75 CALM      30.03R
ALMA           CLEAR     58  56  93 CALM      30.03S
WAYCROSS       CLEAR     60  58  94 CALM      30.04S
JESUP          FAIR      52  52 100 CALM      30.05R
BAXLEY         FAIR      61  61 100 CALM      30.03S
BRUNSWICK      PTCLDY    61  59  94 CALM      30.05R
SAINT SIMONS   CLEAR     72  61  68 S5        30.03S

$$

SCZ027-028-034-036>038-045-046-048>050-GAZ119-141-240900-
...LAKE AND SUPPLEMENTAL COASTAL OBSERVATIONS...

STATION/POSITION TIME  TEMP    WIND        PRES    WAVE   SWELL
                       AIR SEA DIR/SP/G            HT/PER HT/PER/DIR
                 (UTC) (F)     (DEG/KT/KT) (MB)    (FT/S) (FT/S/D)
WINYAH BAY       0700   56     300/  2     1017.0
LAKE MURRAY      0800   65      90/  5/  7 1017.6S
ACE BASIN NERRS  0700   63        CALM     1018.0S
FORT PULASKI     0800   71 75  100/  4/  5 1017.6F
SAPELO ISLAND    0800   63        CALM     1017.0S

$$

ANZ835-935-AMZ111-154-330-350-352-354-370-450-454-472-240900-
...C-MAN AND BUOY OBSERVATIONS...

STATION/POSITION TIME  TEMP    WIND        PRES    WAVE   SWELL
                       AIR SEA DIR/SP/G            HT/PER HT/PER/DIR
                 (UTC) (F)     (DEG/KT/KT) (MB)    (FT/S) (FT/S/D)
BUOY 41004       0750   71 75  360/  8/ 10 1017.5F   3/ 9   2/ 9
BUOY 41008       0750   76 76  120/  6/  6 1017.2S   2/ 9   2/110/ 9
FOLLY BEACH CMAN 0800   66     330/  2/  3 1018.1R
CAPERS NEARSHORE 0808   69 74  360/  8/ 12 1017.7R
FRIPP NEARSHORE  0808   72 75   70/  8/ 10 1017.0R


STATION/POSITION TIME  TEMP    WIND        PRES    WAVE   SWELL
                       AIR SEA DIR/SP/G            HT/PER HT/PER/DIR
                 (UTC) (F)     (DEG/KT/KT) (MB)    (FT/S) (FT/S/D)
5E ST. MARYS GA  0721      77                N/A     2/ 9
FRYING PAN BUOY  0800   67 76  330/ 10/ 14 1016.9F
BUOY 41025       0750   64 68  270/ 14/ 17 1015.4R   4/ 9   3/ 80/ 9
CAPE LOOKOUT NC  0800   63     280/  9/ 10 1016.0R
BUOY 41002       0750   73 77  260/ 12/ 14 1016.3R   4/ 8   3/ 50/ 8
BUOY 41010       0720   77 78   70/  8/  8 1017.3R
ST AUGUSTINE FL  0800   70 78   CALM  /  1 1017.6R


$$



USA.gov is the U.S. government's official web portal to all federal, state and local government web resources and services.